Wind_Speed
24 22 19 17 16 14 14 12 12 11 11 11 11 11 11 11 12 12 12 11 11 11 10 10 9 7 7 7 7 6 5 10
23 20 19 18 17 15 14 13 12 12 11 12 12 13 13 13 14 14 15 14 14 14 13 12 11 10 9 9 10 9 8 7
22 21 20 18 17 15 14 14 13 13 13 14 15 16 16 17 18 17 18 17 17 16 15 14 13 12 11 11 12 11 10 10
23 22 20 18 17 16 15 14 15 15 16 17 16 16 15 15 14 13 14 14 14 14 13 12 12 11 11 11 10 8 8 9
21 21 20 19 18 17 15 14 14 14 15 16 15 14 15 15 15 14 13 13 16 10 9 10 10 7 6 5 4 2 2 4
23 21 20 19 17 15 14 13 13 12 11 12 13 13 14 14 15 14 15 14 13 12 12 9 8 7 9 9 4 4 6 3
24 23 23 22 20 17 15 15 14 14 12 11 13 12 12 15 12 12 15 16 16 16 15 14 14 14 16 13 11 12 13 11
23 25 28 26 26 24 24 22 20 16 15 12 14 13 11 7 11 10 14 17 15 18 17 16 15 15 15 12 13 12 11 11
27 25 27 28 28 25 22 20 19 17 13 12 13 14 12 12 11 14 16 17 17 18 18 17 17 16 16 14 12 11 9 9
28 26 26 29 27 25 22 21 18 15 13 12 13 14 15 17 17 17 17 16 17 17 18 17 17 17 16 15 12 10 10 10
28 26 25 25 24 23 21 19 17 15 13 12 13 13 16 18 15 15 16 15 14 15 15 13 15 15 14 12 9 7 7 7
27 24 23 23 22 22 19 18 18 16 15 13 13 14 16 15 13 13 15 14 12 12 12 11 11 10 9 10 10 8 9 8
29 26 24 23 23 21 18 19 18 18 17 14 13 15 16 15 14 15 14 12 10 10 10 11 8 6 9 12 11 9 7 5
32 29 26 25 24 20 17 17 18 18 17 16 14 15 17 16 15 15 14 13 11 10 11 10 6 6 9 16 13 12 8 7
35 33 28 25 23 21 17 17 20 22 20 18 16 16 18 18 16 16 16 14 12 12 13 13 9 8 13 9 12 8 15 12
33 29 24 19 19 20 23 25 25 23 18 18 17 17 18 18 16 17 17 14 14 14 14 14 12 12 11 11 13 16 10 10
26 21 18 17 16 20 23 25 25 20 21 22 19 18 18 18 19 19 17 15 13 13 14 16 14 11 11 11 11 14 15 13
19 16 17 18 17 22 25 27 24 22 24 23 21 20 20 20 20 19 18 17 15 15 15 15 13 11 10 11 10 9 11 11
17 18 19 20 21 22 28 29 24 23 26 24 21 23 24 23 22 21 19 17 16 15 14 13 12 12 10 10 9 10 9 10
15 15 18 23 22 23 25 27 26 24 26 28 24 25 24 24 23 21 19 17 16 15 14 13 12 12 11 10 10 10 10 8
Wind_Direction
189 187 186 189 193 195 197 199 204 206 206 217 223 228 231 231 233 235 236 236 235 241 245 248 249 254 252 260 271 271 235 205
186 188 191 194 196 198 202 206 209 213 217 225 230 236 239 241 240 238 239 241 242 242 246 249 253 257 261 266 265 265 270 252
185 189 194 197 198 198 200 202 208 212 218 225 227 234 236 239 244 242 244 245 245 246 247 251 255 256 258 259 265 269 262 259
189 192 195 195 201 201 205 210 219 225 227 230 235 239 242 251 249 247 244 252 252 251 253 251 249 254 257 258 264 263 268 265
195 193 197 195 196 196 203 206 220 232 240 244 239 233 238 243 241 245 245 252 252 245 235 241 243 230 248 255 265 237 255 272
198 194 184 183 182 186 193 208 223 235 244 252 240 234 234 238 246 254 256 254 248 239 236 227 220 220 222 227 242 240 212 193
200 196 181 185 192 193 200 214 235 252 255 254 253 247 245 234 230 243 247 247 241 237 229 239 232 235 238 246 236 222 235 237
206 197 189 193 195 201 201 215 230 245 256 250 248 251 254 230 215 215 234 235 238 240 240 235 239 244 245 245 245 241 237 245
215 204 195 200 202 207 212 218 228 241 246 243 240 240 241 232 207 210 227 229 233 234 234 243 241 238 238 234 239 246 240 238
219 214 203 204 209 213 217 221 229 234 241 245 238 230 227 225 221 227 236 242 238 237 235 234 236 231 227 229 235 237 233 244
214 218 215 212 212 217 217 222 229 236 241 240 232 225 222 227 230 233 238 240 235 235 241 236 233 235 235 232 205 168 179 210
217 225 221 219 216 217 213 217 225 234 242 235 229 219 223 229 230 226 229 234 230 228 231 227 228 226 219 199 161 155 192 218
215 223 229 227 220 221 218 217 223 232 241 238 225 216 222 224 225 223 223 229 221 215 208 213 211 212 171 149 144 172 205 225
211 223 231 234 232 230 230 231 233 240 244 241 224 215 219 224 215 216 213 215 209 204 199 207 192 182 173 147 143 144 148 186
218 225 228 230 229 223 223 233 234 237 238 238 225 213 213 218 213 218 217 208 201 199 198 203 186 170 165 164 159 169 143 163
209 214 217 227 229 221 225 232 235 244 250 246 228 216 215 216 215 212 220 211 205 197 193 204 200 189 179 185 181 173 163 143
202 214 225 237 232 219 224 234 241 245 249 244 228 222 217 215 214 213 214 214 204 200 195 201 206 204 196 191 190 183 187 180
196 222 247 245 239 221 225 233 236 245 242 236 232 226 218 213 214 213 212 213 208 205 202 204 209 208 204 202 209 210 205 211
230 238 236 235 234 235 231 234 243 239 248 244 240 232 220 215 214 213 212 210 207 205 204 205 206 206 201 203 209 220 229 230
255 245 232 227 229 234 241 242 250 239 245 242 247 241 226 217 213 213 210 210 209 205 204 199 203 207 206 201 202 207 221 235
Height
1526 1528 1531 1533 1537 1540 1542 1544 1545 1547 1549 1551 1553 1554 1555 1556 1557 1558 1559 1560 1560 1561 1562 1563 1564 1565 1566 1567 1567 1568 1568 1569
1525 1528 1530 1533 1535 1538 1541 1543 1544 1546 1547 1549 1550 1551 1553 1554 1555 1556 1558 1558 1558 1559 1560 1561 1562 1563 1564 1565 1565 1566 1567 1567
1523 1526 1529 1532 1534 1536 1539 1540 1543 1543 1545 1546 1546 1547 1549 1550 1551 1553 1554 1555 1556 1557 1557 1558 1560 1561 1562 1562 1563 1564 1564 1564
1522 1524 1527 1530 1532 1535 1537 1539 1540 1541 1542 1543 1543 1544 1546 1547 1548 1549 1551 1552 1553 1554 1554 1556 1557 1558 1559 1560 1561 1562 1562 1562
1519 1521 1524 1527 1530 1532 1533 1535 1537 1539 1539 1540 1541 1541 1543 1544 1546 1547 1548 1549 1550 1551 1551 1552 1554 1556 1556 1557 1558 1560 1560 1559
1517 1519 1521 1524 1527 1529 1531 1532 1533 1535 1537 1537 1538 1539 1539 1541 1543 1545 1546 1547 1548 1550 1550 1551 1552 1553 1554 1555 1556 1558 1558 1558
1515 1517 1520 1521 1524 1525 1527 1529 1530 1532 1534 1535 1535 1535 1536 1537 1539 1542 1543 1544 1545 1547 1548 1548 1550 1551 1551 1553 1554 1556 1556 1556
1513 1516 1516 1520 1520 1523 1525 1527 1528 1529 1531 1532 1531 1532 1533 1535 1536 1538 1539 1540 1542 1543 1545 1545 1547 1548 1548 1549 1550 1552 1553 1552
1510 1512 1516 1516 1518 1520 1522 1524 1525 1526 1528 1529 1529 1530 1531 1531 1532 1534 1534 1537 1538 1539 1540 1543 1545 1544 1545 1546 1547 1549 1550 1550
1506 1511 1514 1514 1517 1518 1520 1521 1522 1523 1524 1525 1526 1528 1528 1528 1528 1530 1532 1533 1535 1536 1537 1539 1540 1541 1542 1543 1544 1546 1547 1546
1503 1508 1512 1514 1515 1517 1517 1518 1518 1520 1521 1522 1523 1525 1525 1524 1526 1528 1529 1529 1532 1533 1534 1536 1536 1537 1539 1541 1542 1543 1544 1543
1500 1506 1511 1513 1514 1514 1515 1516 1516 1517 1518 1519 1521 1521 1521 1523 1525 1524 1525 1526 1528 1530 1531 1532 1533 1534 1536 1538 1540 1542 1542 1542
1493 1500 1507 1510 1511 1513 1514 1515 1515 1514 1515 1516 1517 1518 1518 1519 1521 1521 1522 1523 1525 1527 1529 1529 1531 1532 1534 1536 1540 1542 1542 1542
1486 1492 1498 1504 1508 1511 1514 1515 1515 1515 1515 1516 1516 1516 1516 1517 1518 1517 1519 1521 1522 1523 1525 1526 1529 1530 1532 1534 1539 1543 1541 1541
1479 1484 1490 1496 1501 1505 1509 1512 1512 1511 1512 1513 1515 1516 1515 1514 1515 1516 1516 1516 1518 1520 1521 1521 1524 1527 1529 1531 1535 1536 1537 1539
1479 1484 1490 1496 1500 1502 1502 1503 1505 1508 1511 1511 1513 1514 1514 1513 1514 1513 1514 1515 1515 1516 1517 1519 1520 1521 1524 1526 1527 1529 1532 1538
1481 1487 1491 1494 1496 1498 1501 1502 1504 1504 1506 1507 1508 1511 1512 1512 1511 1511 1512 1513 1514 1515 1515 1515 1516 1518 1520 1522 1524 1527 1529 1530
1486 1489 1490 1494 1495 1496 1498 1499 1501 1502 1500 1501 1504 1506 1508 1509 1508 1509 1509 1510 1511 1511 1512 1512 1514 1515 1517 1519 1521 1524 1525 1526
1487 1488 1487 1490 1494 1492 1494 1496 1496 1496 1499 1497 1500 1502 1503 1504 1505 1505 1506 1507 1508 1509 1510 1512 1511 1512 1513 1515 1518 1520 1522 1523
1486 1487 1486 1486 1488 1490 1492 1494 1494 1492 1494 1493 1496 1498 1500 1501 1501 1503 1504 1505 1507 1506 1506 1508 1510 1509 1510 1511 1512 1515 1517 1520